Вернуться в каталог

ARIANE 44LP DEB

АктивенGTO
NORAD 27660·DEBRIS·🇫🇷 France

Запущен Aug 8, 1989 с Guiana Space Centre

Loading…

TLE

УстаревающийSource: Space-Track

Эпоха: Sep 14, 2026, 15:21 UTC

1 27660U 89062Q   26257.64013197  .00001391  00000-0  11883-1 0  9995
2 27660   7.4193   7.4495 7053358 233.5137  39.3467  2.41561287121520

Отслеживайте ARIANE 44LP DEB в реальном времени с AllMySat

Download on the App Store